Location: Passo di Treia
(43.2833°N, 13.3333°E)
Time: 16:31:43
(UTC+00:00)

CORIOLIS - Pass Details

Date: 09 December 2019
Orbit: 817 x 839 km, 98.7° (Epoch: 23 January)

Event Time Altitude Azimuth Distance (km) Brightness Sun altitude
Rises 16:13:52 0° 152° (SSE) 3,377 7.3 -7.8°
Reaches altitude 10° 16:16:15 10° 148° (SSE) 2,448 6.5 -8.1°
Maximum altitude 16:21:33 58° 71° (ENE) 980 4.2 -9.0°
Drops below altitude 10° 16:26:54 10° 354° (N) 2,464 6.5 -9.9°
Sets 16:29:18 0° 351° (N) 3,401 7.2 -10.3°
